Hourly Data Report for January 26, 2020

SATURNA ISLAND CS
BRITISH COLUMBIA
Current Station Operator: ECCC - MSC

48°47'02.067" N
123°02'41.082" W
24.40 m
1017101
71473
WEZ

Download Data

Hourly Data (January 2020)
Hourly Data Report for January 26, 2020
TIME
LST
Temp Definition
°C
Dew Point Definition
°C
Rel Hum Definition
%
Precip. Amount Definition
mm

Wind Dir Definition
10's deg

Wind Spd Definition
km/h
Visibility Definition
km
Stn Press Definition
kPa
Hmdx Definition


Wind Chill Definition


Weather Definition


00:00 8.2 5.5 83 0.0 9 28   100.58     LegendNANA
01:00 7.9 5.5 84 0.0 10 29   100.45     LegendNANA
02:00 7.9 5.3 84 0.0 9 33   100.32     LegendNANA
03:00 7.9 5.2 83 0.4 11 29   100.28     LegendNANA
04:00 8.3 5.4 82 0.4 12 32   100.26     LegendNANA
05:00 9.6 6.3 80 0.0 16 37   100.30     LegendNANA
06:00 9.4 7.3 87 0.0 18 43   100.38     LegendNANA
07:00 9.2 7.3 88 0.0 17 44   100.51     LegendNANA
08:00 9.2 7.4 89 0.0 18 30   100.69     LegendNANA
09:00 9.1 7.6 90 0.0 19 28   100.79     LegendNANA
10:00 10.2 7.4 83 0.4 21 27   100.91     LegendNANA
11:00 10.3 6.4 77 0.0 12 19   101.01     LegendNANA
12:00 11.2 6.5 73 0.0 15 15   101.04     LegendNANA
13:00 9.8 6.9 82 0.0 16 29   101.08     LegendNANA
14:00 9.4 7.1 86 0.0 14 27   101.04     LegendNANA
15:00 9.7 6.7 81 0.0 15 27   101.01     LegendNANA
16:00 9.6 6.3 80 0.0 16 21   101.02     LegendNANA
17:00 9.3 5.7 78 0.0 16 27   101.00     LegendNANA
18:00 9.3 5.5 77 0.0 15 41   100.94     LegendNANA
19:00 9.4 5.8 78 0.0 19 46   100.92     LegendNANA
20:00 9.4 5.8 78 0.0 17 54   100.94     LegendNANA
21:00 8.9 6.3 84 0.0 19 46   101.05     LegendNANA
22:00 8.1 6.6 90 0.6 19 36   101.14     LegendNANA
23:00 7.7 6.3 91 0.0 20 27   101.19     LegendNANA

Notes on Data Quality.

Legend

  • E = Estimated
  • M = Missing
  • NA = Not Available*
  • [empty] = Indicates an unobserved value
Date modified: